| time (UTC) | temp C | wind direction | speed KPH | gust KPH | rain 1hr cm | rain 24hr cm | rain mn cm | humidity % | barometer mb |
| 20260508090158 | 14 | 22 | 0.0 | 0.0 | 0.00 | 0.00 | 0.00 | 81 | 1017.3 |
| 20260508090058 | 15 | 20 | 0.0 | 0.0 | 0.00 | 0.00 | 0.00 | 81 | 1017.4 |
| 20260508085551 | 14 | 29 | 0.0 | 0.0 | 0.00 | 0.00 | 0.00 | 82 | 1017.4 |
| 20260508085059 | 14 | 172 | 0.0 | 0.0 | 0.00 | 0.00 | 0.00 | 83 | 1017.4 |
| 20260508084653 | 13 | 23 | 0.0 | 0.0 | 0.00 | 0.00 | 0.00 | 84 | 1017.3 |
| 20260508084552 | 13 | 11 | 0.0 | 0.0 | 0.00 | 0.00 | 0.00 | 84 | 1017.4 |
| 20260508083057 | 12 | 15 | 0.0 | 0.0 | 0.00 | 0.00 | 0.00 | 85 | 1017.4 |
| 20260508081605 | 12 | 139 | 0.0 | 0.0 | 0.00 | 0.00 | 0.00 | 86 | 1017.3 |
| 20260508080052 | 12 | 27 | 0.0 | 0.0 | 0.00 | 0.00 | 0.00 | 87 | 1017.3 |
| 20260508074550 | 11 | 158 | 0.0 | 0.0 | 0.00 | 0.00 | 0.00 | 89 | 1017.4 |
| 20260508073104 | 11 | 146 | 0.0 | 0.0 | 0.00 | 0.00 | 0.00 | 90 | 1017.4 |
| 20260508071547 | 10 | 32 | 0.0 | 0.0 | 0.00 | 0.00 | 0.00 | 90 | 1017.4 |
| 20260508070048 | 10 | 31 | 0.0 | 0.0 | 0.00 | 0.00 | 0.00 | 90 | 1017.2 |
| 20260508064547 | 10 | 51 | 0.0 | 0.0 | 0.00 | 0.00 | 0.00 | 91 | 1017.1 |
| 20260508063043 | 10 | 22 | 0.0 | 0.0 | 0.00 | 0.00 | 0.00 | 91 | 1016.9 |
| 20260508061543 | 9 | 47 | 0.0 | 0.0 | 0.00 | 0.00 | 0.00 | 91 | 1016.8 |
| 20260508060058 | 9 | 44 | 0.0 | 0.0 | 0.00 | 0.00 | 0.00 | 91 | 1016.7 |
| 20260508054539 | 8 | 68 | 0.0 | 0.0 | 0.00 | 0.00 | 0.00 | 91 | 1016.8 |
| 20260508053037 | 8 | 68 | 0.0 | 0.0 | 0.00 | 0.00 | 0.00 | 91 | 1016.6 |
| 20260508051545 | 8 | 32 | 0.0 | 0.0 | 0.00 | 0.00 | 0.00 | 91 | 1016.7 |
| 20260508050036 | 8 | 9 | 0.0 | 0.0 | 0.00 | 0.00 | 0.00 | 91 | 1016.4 |
| 20260508044538 | 8 | 38 | 0.0 | 0.0 | 0.00 | 0.00 | 0.00 | 91 | 1016.3 |
| 20260508043034 | 8 | 39 | 0.0 | 0.0 | 0.00 | 0.00 | 0.00 | 91 | 1016.3 |
| 20260508041533 | 8 | 112 | 0.0 | 0.0 | 0.00 | 0.00 | 0.00 | 90 | 1016.3 |
| 20260508040045 | 8 | 30 | 0.0 | 0.0 | 0.00 | 0.00 | 0.00 | 90 | 1016.2 |
| 20260508034543 | 8 | 24 | 0.0 | 0.0 | 0.00 | 0.00 | 0.00 | 90 | 1016.3 |
| 20260508033032 | 8 | 19 | 0.0 | 0.0 | 0.00 | 0.00 | 0.00 | 90 | 1016.2 |
| 20260508031536 | 8 | 19 | 0.0 | 0.0 | 0.00 | 0.00 | 0.00 | 90 | 1016.1 |
| 20260508030031 | 8 | 19 | 0.0 | 0.0 | 0.00 | 0.00 | 0.00 | 90 | 1016.1 |
| 20260508024552 | 8 | 19 | 0.0 | 0.0 | 0.00 | 0.00 | 0.00 | 90 | 1016.1 |
| 20260508023030 | 8 | 19 | 0.0 | 0.0 | 0.00 | 0.00 | 0.00 | 89 | 1016.2 |
| 20260508021529 | 8 | 19 | 0.0 | 0.0 | 0.00 | 0.00 | 0.00 | 89 | 1016.1 |
| 20260508020029 | 8 | 19 | 0.0 | 0.0 | 0.00 | 0.00 | 0.00 | 89 | 1016.1 |
| 20260508014527 | 8 | 19 | 0.0 | 0.0 | 0.00 | 0.00 | 0.00 | 89 | 1016.2 |
| 20260508013032 | 8 | 19 | 0.0 | 0.0 | 0.00 | 0.00 | 0.00 | 88 | 1016.1 |
| 20260508011530 | 8 | 19 | 0.0 | 0.0 | 0.00 | 0.00 | 0.00 | 87 | 1016.2 |
| 20260508010023 | 8 | 19 | 0.0 | 0.0 | 0.00 | 0.00 | 0.00 | 87 | 1016.2 |
| 20260508004537 | 9 | 19 | 0.0 | 0.0 | 0.00 | 0.00 | 0.00 | 86 | 1016.2 |
| 20260508003019 | 9 | 19 | 0.0 | 0.0 | 0.00 | 0.00 | 0.00 | 86 | 1016.2 |
| 20260508001529 | 10 | 19 | 0.0 | 0.0 | 0.00 | 0.00 | 0.00 | 86 | 1016.3 |
| 20260508000016 | 10 | 19 | 0.0 | 0.0 | 0.00 | 0.00 | 0.00 | 85 | 1016.4 |
| 20260507234515 | 10 | 19 | 0.0 | 0.0 | 0.00 | 0.00 | 0.00 | 85 | 1016.4 |
| 20260507233013 | 10 | 19 | 0.0 | 0.0 | 0.00 | 0.00 | 0.00 | 84 | 1016.5 |
| 20260507231512 | 10 | 19 | 0.0 | 0.0 | 0.00 | 0.00 | 0.00 | 83 | 1016.5 |
| 20260507230010 | 10 | 19 | 0.0 | 0.0 | 0.00 | 0.00 | 0.00 | 82 | 1016.4 |
| 20260507224512 | 10 | 19 | 0.0 | 0.0 | 0.00 | 0.00 | 0.00 | 82 | 1016.4 |
| 20260507223007 | 11 | 19 | 0.0 | 0.0 | 0.00 | 0.00 | 0.00 | 81 | 1016.3 |
| 20260507221506 | 11 | 19 | 0.0 | 0.0 | 0.00 | 0.00 | 0.00 | 80 | 1016.4 |
| 20260507220004 | 11 | 19 | 0.0 | 0.0 | 0.00 | 0.00 | 0.00 | 78 | 1016.3 |
| 20260507214503 | 11 | 19 | 0.0 | 0.0 | 0.00 | 0.00 | 0.00 | 78 | 1016.4 |
| 20260507213002 | 11 | 19 | 0.0 | 0.0 | 0.00 | 0.00 | 0.00 | 77 | 1016.2 |
| 20260507211649 | 12 | 19 | 0.0 | 0.0 | 0.00 | 0.00 | 0.00 | 76 | 1016.2 |
| 20260507211548 | 12 | 19 | 0.0 | 0.0 | 0.00 | 0.00 | 0.00 | 76 | 1016.2 |
| 20260507211056 | 12 | 19 | 0.0 | 0.0 | 0.00 | 0.00 | 0.00 | 76 | 1016.2 |
| 20260507210607 | 12 | 19 | 0.0 | 0.0 | 0.00 | 0.00 | 0.00 | 75 | 1016.2 |
| 20260507210053 | 12 | 19 | 0.0 | 0.0 | 0.00 | 0.00 | 0.00 | 75 | 1016.1 |
| 20260507210006 | 12 | 19 | 0.0 | 0.0 | 0.00 | 0.00 | 0.00 | 75 | 1016.1 |
| 20260507205544 | 12 | 19 | 0.0 | 0.0 | 0.00 | 0.00 | 0.00 | 75 | 1016.1 |
| 20260507205049 | 12 | 19 | 0.0 | 0.0 | 0.00 | 0.00 | 0.00 | 75 | 1016.1 |
| 20260507204701 | 12 | 19 | 0.0 | 0.0 | 0.00 | 0.00 | 0.00 | 74 | 1016.1 |
| 20260507204557 | 12 | 19 | 0.0 | 0.0 | 0.00 | 0.00 | 0.00 | 74 | 1016.0 |
| 20260507204044 | 12 | 19 | 0.0 | 0.0 | 0.00 | 0.00 | 0.00 | 74 | 1016.0 |
| 20260507203618 | 13 | 19 | 0.0 | 0.0 | 0.00 | 0.00 | 0.00 | 74 | 1016.0 |
| 20260507203144 | 12 | 19 | 0.0 | 0.0 | 0.00 | 0.00 | 0.00 | 73 | 1015.9 |
| 20260507203043 | 13 | 19 | 0.0 | 0.0 | 0.00 | 0.00 | 0.00 | 73 | 1015.9 |
| 20260507202555 | 13 | 19 | 0.0 | 0.0 | 0.00 | 0.00 | 0.00 | 73 | 1015.9 |
| 20260507202043 | 13 | 19 | 0.0 | 0.0 | 0.00 | 0.00 | 0.00 | 73 | 1015.9 |
| 20260507201655 | 12 | 18 | 0.0 | 0.0 | 0.00 | 0.00 | 0.00 | 73 | 1015.9 |
| 20260507201553 | 13 | 18 | 0.0 | 0.0 | 0.00 | 0.00 | 0.00 | 73 | 1015.9 |
| 20260507201040 | 13 | 28 | 0.0 | 0.0 | 0.00 | 0.00 | 0.00 | 73 | 1015.9 |
| 20260507200552 | 13 | 51 | 0.0 | 0.0 | 0.00 | 0.00 | 0.00 | 73 | 1015.9 |
| 20260507200143 | 13 | 24 | 0.0 | 0.0 | 0.00 | 0.00 | 0.00 | 73 | 1015.9 |
| 20260507200039 | 13 | 19 | 0.0 | 0.0 | 0.00 | 0.00 | 0.00 | 73 | 1015.8 |
| 20260507195611 | 13 | 18 | 0.0 | 0.0 | 0.00 | 0.00 | 0.00 | 73 | 1015.8 |
| 20260507195117 | 13 | 24 | 0.0 | 0.0 | 0.00 | 0.00 | 0.00 | 72 | 1015.8 |
| 20260507194651 | 13 | 24 | 0.0 | 0.0 | 0.00 | 0.00 | 0.00 | 72 | 1015.7 |
| 20260507194546 | 13 | 24 | 0.0 | 0.0 | 0.00 | 0.00 | 0.00 | 72 | 1015.7 |
| 20260507194053 | 13 | 25 | 0.0 | 0.0 | 0.00 | 0.00 | 0.00 | 72 | 1015.7 |
| 20260507193545 | 13 | 25 | 0.0 | 0.0 | 0.00 | 0.00 | 0.00 | 72 | 1015.6 |
| 20260507193156 | 13 | 26 | 0.0 | 0.0 | 0.00 | 0.00 | 0.00 | 71 | 1015.6 |
| 20260507193052 | 13 | 26 | 0.0 | 0.0 | 0.00 | 0.00 | 0.00 | 71 | 1015.6 |
| 20260507192548 | 13 | 24 | 0.0 | 0.0 | 0.00 | 0.00 | 0.00 | 71 | 1015.5 |
| 20260507192111 | 13 | 24 | 0.0 | 0.0 | 0.00 | 0.00 | 0.00 | 71 | 1015.4 |
| 20260507191647 | 13 | 24 | 0.0 | 0.0 | 0.00 | 0.00 | 0.00 | 71 | 1015.4 |
| 20260507191546 | 14 | 24 | 0.0 | 0.0 | 0.00 | 0.00 | 0.00 | 71 | 1015.4 |
| 20260507191105 | 14 | 27 | 0.0 | 0.0 | 0.00 | 0.00 | 0.00 | 70 | 1015.4 |
| 20260507190617 | 14 | 26 | 0.0 | 0.0 | 0.00 | 0.00 | 0.00 | 70 | 1015.4 |
| 20260507185553 | 14 | 53 | 0.0 | 0.0 | 0.00 | 0.10 | 0.00 | 70 | 1015.3 |
| 20260507185039 | 14 | 26 | 0.0 | 0.0 | 0.00 | 0.10 | 0.00 | 70 | 1015.3 |
| 20260507184652 | 14 | 22 | 0.0 | 0.0 | 0.00 | 0.03 | 0.00 | 69 | 1015.3 |
| 20260507184550 | 14 | 22 | 0.0 | 0.0 | 0.00 | 0.10 | 0.00 | 69 | 1015.3 |
| 20260507184041 | 14 | 22 | 0.0 | 0.0 | 0.00 | 0.10 | 0.00 | 69 | 1015.3 |
| 20260507183553 | 15 | 13 | 0.0 | 0.0 | 0.00 | 0.10 | 0.00 | 69 | 1015.3 |
| 20260507183056 | 15 | 22 | 0.0 | 0.0 | 0.00 | 0.10 | 0.00 | 68 | 1015.3 |
| 20260507183012 | 14 | 23 | 0.0 | 0.0 | 0.00 | 0.03 | 0.00 | 68 | 1015.3 |
| 20260507182547 | 15 | 20 | 0.0 | 0.0 | 0.00 | 0.10 | 0.00 | 68 | 1015.3 |
| 20260507182054 | 15 | 26 | 0.0 | 0.0 | 0.00 | 0.10 | 0.00 | 68 | 1015.3 |
| 20260507181643 | 15 | 26 | 0.0 | 0.0 | 0.00 | 0.03 | 0.00 | 68 | 1015.2 |
| 20260507181543 | 15 | 26 | 0.0 | 0.0 | 0.00 | 0.10 | 0.00 | 68 | 1015.2 |
| 20260507181049 | 15 | 26 | 0.0 | 0.0 | 0.00 | 0.10 | 0.00 | 67 | 1015.2 |
| 20260507180559 | 15 | 26 | 0.0 | 0.0 | 0.00 | 0.10 | 0.00 | 67 | 1015.1 |
| 20260507180146 | 15 | 26 | 0.0 | 0.0 | 0.00 | 0.05 | 0.00 | 66 | 1015.1 |
| 20260507180045 | 15 | 26 | 0.0 | 0.0 | 0.00 | 0.20 | 0.00 | 66 | 1015.1 |
| 20260507175557 | 15 | 26 | 0.0 | 0.0 | 0.00 | 0.20 | 0.00 | 66 | 1015.0 |
| 20260507175041 | 15 | 26 | 0.0 | 0.0 | 0.00 | 0.20 | 0.00 | 66 | 1015.0 |
| 20260507174654 | 15 | 26 | 0.0 | 0.0 | 0.00 | 0.05 | 0.00 | 66 | 1015.0 |
| 20260507174552 | 15 | 26 | 0.0 | 0.0 | 0.00 | 0.20 | 0.00 | 66 | 1015.0 |
| 20260507174117 | 15 | 26 | 0.0 | 0.0 | 0.00 | 0.20 | 0.00 | 66 | 1015.0 |
| 20260507173604 | 15 | 26 | 0.0 | 0.0 | 0.00 | 0.20 | 0.00 | 66 | 1015.0 |
| 20260507173050 | 15 | 26 | 0.0 | 0.0 | 0.00 | 0.20 | 0.00 | 66 | 1014.9 |
| 20260507173004 | 15 | 26 | 0.0 | 0.0 | 0.00 | 0.05 | 0.00 | 66 | 1014.9 |
| 20260507172600 | 15 | 26 | 0.0 | 0.0 | 0.00 | 0.20 | 0.00 | 66 | 1014.9 |
| 20260507172044 | 15 | 26 | 0.0 | 0.0 | 0.00 | 0.20 | 0.00 | 65 | 1014.8 |
| 20260507171553 | 15 | 26 | 0.0 | 0.0 | 0.00 | 0.20 | 0.00 | 65 | 1014.8 |
| 20260507171039 | 16 | 26 | 0.0 | 0.0 | 0.00 | 0.20 | 0.00 | 66 | 1014.8 |
| 20260507170550 | 16 | 26 | 0.0 | 0.0 | 0.00 | 0.20 | 0.00 | 65 | 1014.8 |
| 20260507170157 | 15 | 26 | 0.0 | 0.0 | 0.00 | 0.05 | 0.00 | 64 | 1014.8 |
| 20260507170057 | 16 | 26 | 0.0 | 0.0 | 0.00 | 0.30 | 0.00 | 65 | 1014.8 |
| 20260507165548 | 16 | 26 | 0.0 | 0.0 | 0.00 | 0.30 | 0.00 | 64 | 1014.8 |
| 20260507165052 | 16 | 26 | 0.0 | 0.0 | 0.00 | 0.30 | 0.00 | 64 | 1014.9 |
| 20260507164648 | 15 | 26 | 0.0 | 0.0 | 0.00 | 0.05 | 0.00 | 64 | 1014.8 |
| 20260507164544 | 16 | 26 | 0.0 | 0.0 | 0.00 | 0.30 | 0.00 | 64 | 1014.8 |
| 20260507164053 | 16 | 26 | 0.0 | 0.0 | 0.00 | 0.30 | 0.00 | 65 | 1014.8 |
| 20260507163541 | 16 | 26 | 0.0 | 0.0 | 0.00 | 0.30 | 0.00 | 63 | 1014.8 |
| 20260507163150 | 15 | 26 | 0.0 | 0.0 | 0.00 | 0.05 | 0.00 | 63 | 1014.8 |
| 20260507163048 | 16 | 26 | 0.0 | 0.0 | 0.00 | 0.30 | 0.00 | 64 | 1014.8 |
| 20260507162540 | 16 | 26 | 0.0 | 0.0 | 0.00 | 0.30 | 0.00 | 64 | 1014.8 |
| 20260507162047 | 16 | 26 | 0.0 | 0.0 | 0.00 | 0.30 | 0.00 | 64 | 1014.8 |
| 20260507161700 | 15 | 26 | 0.0 | 0.0 | 0.00 | 0.05 | 0.00 | 62 | 1014.8 |
| 20260507161559 | 16 | 26 | 0.0 | 0.0 | 0.00 | 0.30 | 0.00 | 62 | 1014.8 |
| 20260507161045 | 16 | 26 | 0.0 | 0.0 | 0.00 | 0.30 | 0.00 | 63 | 1014.8 |
| 20260507160555 | 16 | 26 | 0.0 | 0.0 | 0.00 | 0.30 | 0.00 | 62 | 1014.8 |
| 20260507160145 | 16 | 26 | 0.0 | 0.0 | 0.00 | 0.05 | 0.00 | 62 | 1014.8 |
| 20260507160043 | 16 | 26 | 0.0 | 0.0 | 0.00 | 0.30 | 0.00 | 63 | 1014.8 |
| 20260507155553 | 16 | 26 | 0.0 | 0.0 | 0.00 | 0.30 | 0.00 | 63 | 1014.7 |
| 20260507155056 | 16 | 26 | 0.0 | 0.0 | 0.00 | 0.30 | 0.00 | 63 | 1014.7 |
| 20260507154648 | 16 | 30 | 0.0 | 0.0 | 0.00 | 0.05 | 0.00 | 62 | 1014.7 |
| 20260507154546 | 16 | 30 | 0.0 | 0.0 | 0.00 | 0.30 | 0.00 | 62 | 1014.7 |
| 20260507154053 | 16 | 30 | 0.0 | 0.0 | 0.00 | 0.30 | 0.00 | 62 | 1014.7 |
| 20260507153544 | 16 | 30 | 0.0 | 0.0 | 0.00 | 0.30 | 0.00 | 62 | 1014.7 |
| 20260507153052 | 16 | 30 | 0.0 | 0.0 | 0.00 | 0.30 | 0.00 | 63 | 1014.7 |
| 20260507153006 | 16 | 30 | 0.0 | 0.0 | 0.00 | 0.05 | 0.00 | 63 | 1014.7 |
| 20260507152604 | 16 | 30 | 0.0 | 0.0 | 0.00 | 0.30 | 0.00 | 63 | 1014.7 |
| 20260507152047 | 16 | 30 | 0.0 | 0.0 | 0.00 | 0.30 | 0.00 | 63 | 1014.7 |
| 20260507151701 | 16 | 29 | 0.0 | 0.0 | 0.00 | 0.05 | 0.00 | 63 | 1014.7 |
| 20260507151559 | 16 | 29 | 0.0 | 0.0 | 0.00 | 0.30 | 0.00 | 62 | 1014.6 |
| 20260507151046 | 17 | 29 | 0.0 | 0.0 | 0.00 | 0.30 | 0.00 | 62 | 1014.6 |
| 20260507150540 | 17 | 29 | 0.0 | 0.0 | 0.00 | 0.30 | 0.00 | 63 | 1014.5 |
| 20260507150104 | 17 | 26 | 0.0 | 0.0 | 0.00 | 0.30 | 0.00 | 62 | 1014.5 |
| 20260507145553 | 17 | 29 | 0.0 | 0.0 | 0.00 | 0.30 | 0.00 | 61 | 1014.5 |
| 20260507145059 | 17 | 24 | 0.0 | 0.0 | 0.00 | 0.30 | 0.00 | 60 | 1014.5 |
| 20260507144654 | 17 | 24 | 0.0 | 0.0 | 0.00 | 0.05 | 0.00 | 61 | 1014.5 |
| 20260507144551 | 17 | 360 | 0.0 | 0.0 | 0.00 | 0.30 | 0.00 | 61 | 1014.4 |
| 20260507144056 | 17 | 360 | 0.0 | 0.0 | 0.00 | 0.30 | 0.00 | 62 | 1014.4 |
| 20260507143548 | 17 | 360 | 0.0 | 0.0 | 0.00 | 0.30 | 0.00 | 60 | 1014.4 |
| 20260507143140 | 17 | 360 | 0.0 | 0.0 | 0.00 | 0.05 | 0.00 | 59 | 1014.5 |
| 20260507143039 | 17 | 360 | 0.0 | 0.0 | 0.00 | 0.30 | 0.00 | 60 | 1014.4 |
| 20260507142551 | 17 | 40 | 0.0 | 0.0 | 0.00 | 0.30 | 0.00 | 60 | 1014.4 |
| 20260507142037 | 17 | 40 | 0.0 | 0.0 | 0.00 | 0.30 | 0.00 | 59 | 1014.5 |
| 20260507141652 | 17 | 25 | 0.0 | 0.0 | 0.00 | 0.05 | 0.00 | 59 | 1014.6 |
| 20260507141549 | 17 | 360 | 0.0 | 0.0 | 0.00 | 0.30 | 0.00 | 58 | 1014.6 |
| 20260507141057 | 17 | 360 | 0.0 | 0.0 | 0.00 | 0.30 | 0.00 | 60 | 1014.6 |
| 20260507140545 | 17 | 13 | 0.0 | 0.0 | 0.00 | 0.30 | 0.00 | 61 | 1014.6 |
| 20260507140153 | 17 | 13 | 0.0 | 0.0 | 0.00 | 0.05 | 0.00 | 61 | 1014.7 |
| 20260507140053 | 17 | 13 | 0.0 | 0.0 | 0.00 | 0.30 | 0.00 | 60 | 1014.6 |
| 20260507135545 | 17 | 350 | 0.0 | 0.0 | 0.00 | 0.30 | 0.00 | 59 | 1014.6 |
| 20260507135050 | 17 | 349 | 0.0 | 0.0 | 0.00 | 0.30 | 0.00 | 60 | 1014.6 |
| 20260507134643 | 17 | 349 | 0.0 | 0.0 | 0.00 | 0.05 | 0.00 | 60 | 1014.8 |
| 20260507134542 | 17 | 346 | 0.0 | 0.0 | 0.00 | 0.30 | 0.00 | 59 | 1014.7 |
| 20260507134049 | 17 | 346 | 0.0 | 0.0 | 0.00 | 0.30 | 0.00 | 61 | 1014.8 |
| 20260507133559 | 17 | 360 | 0.0 | 0.0 | 0.00 | 0.30 | 0.00 | 60 | 1014.8 |
| 20260507133048 | 17 | 304 | 0.0 | 0.0 | 0.00 | 0.30 | 0.00 | 59 | 1014.8 |
| 20260507133002 | 17 | 304 | 0.0 | 0.0 | 0.00 | 0.05 | 0.00 | 59 | 1014.9 |
| 20260507132600 | 17 | 35 | 0.0 | 0.0 | 0.00 | 0.30 | 0.00 | 58 | 1014.8 |
| 20260507132045 | 18 | 33 | 0.0 | 0.0 | 0.00 | 0.30 | 0.00 | 57 | 1014.7 |
| 20260507131659 | 18 | 53 | 0.0 | 0.0 | 0.00 | 0.05 | 0.00 | 56 | 1014.8 |
| 20260507131557 | 18 | 21 | 0.0 | 0.0 | 0.00 | 0.30 | 0.00 | 57 | 1014.8 |
| 20260507131040 | 18 | 54 | 0.0 | 0.0 | 0.00 | 0.30 | 0.00 | 57 | 1014.7 |
| 20260507130552 | 17 | 52 | 0.0 | 0.0 | 0.00 | 0.30 | 0.00 | 59 | 1014.8 |
| 20260507130201 | 17 | 52 | 0.0 | 0.0 | 0.00 | 0.08 | 0.00 | 60 | 1014.7 |
| 20260507130100 | 17 | 51 | 0.0 | 0.0 | 0.00 | 0.41 | 0.00 | 59 | 1014.6 |
| 20260507125548 | 18 | 36 | 0.0 | 0.0 | 0.00 | 0.41 | 0.00 | 57 | 1014.6 |
| 20260507125056 | 18 | 53 | 0.0 | 0.0 | 0.00 | 0.41 | 0.00 | 57 | 1014.6 |
| 20260507124649 | 17 | 23 | 0.0 | 0.0 | 0.00 | 0.08 | 0.00 | 61 | 1014.6 |
| 20260507124548 | 18 | 20 | 0.0 | 0.0 | 0.00 | 0.41 | 0.00 | 61 | 1014.6 |
| 20260507124111 | 18 | 20 | 0.0 | 0.0 | 0.00 | 0.41 | 0.00 | 58 | 1014.6 |
| 20260507123601 | 18 | 22 | 0.0 | 0.0 | 0.00 | 0.41 | 0.00 | 56 | 1014.6 |
| 20260507123149 | 18 | 47 | 0.0 | 0.0 | 0.00 | 0.08 | 0.00 | 58 | 1014.6 |
| 20260507123047 | 18 | 47 | 0.0 | 0.0 | 0.00 | 0.41 | 0.00 | 59 | 1014.5 |
| 20260507122559 | 18 | 239 | 0.0 | 0.0 | 0.00 | 0.41 | 0.00 | 58 | 1014.5 |
| 20260507122105 | 18 | 243 | 0.0 | 0.0 | 0.00 | 0.41 | 0.00 | 58 | 1014.6 |
| 20260507121659 | 17 | 59 | 0.0 | 0.0 | 0.00 | 0.08 | 0.00 | 59 | 1014.6 |
| 20260507121557 | 18 | 59 | 0.0 | 0.0 | 0.00 | 0.41 | 0.00 | 60 | 1014.5 |
| 20260507121045 | 18 | 24 | 0.0 | 0.0 | 0.00 | 0.41 | 0.00 | 61 | 1014.6 |
| 20260507120556 | 18 | 51 | 0.0 | 0.0 | 0.00 | 0.41 | 0.00 | 59 | 1014.6 |
| 20260507120145 | 18 | 44 | 0.0 | 0.0 | 0.00 | 0.08 | 0.00 | 59 | 1014.6 |
| 20260507120044 | 18 | 44 | 0.0 | 0.0 | 0.00 | 0.41 | 0.00 | 58 | 1014.6 |
| 20260507115556 | 18 | 44 | 0.0 | 0.0 | 0.00 | 0.41 | 0.00 | 59 | 1014.6 |
| 20260507115103 | 18 | 69 | 0.0 | 0.0 | 0.00 | 0.41 | 0.00 | 61 | 1014.6 |
| 20260507114655 | 17 | 59 | 0.0 | 0.0 | 0.00 | 0.08 | 0.00 | 64 | 1014.6 |
| 20260507114555 | 17 | 57 | 0.0 | 0.0 | 0.00 | 0.41 | 0.00 | 63 | 1014.6 |
| 20260507114043 | 17 | 57 | 0.0 | 0.0 | 0.00 | 0.41 | 0.00 | 58 | 1014.6 |
| 20260507113553 | 17 | 34 | 0.0 | 0.0 | 0.00 | 0.41 | 0.00 | 60 | 1014.6 |
| 20260507113109 | 17 | 26 | 0.0 | 0.0 | 0.00 | 0.41 | 0.00 | 61 | 1014.7 |
| 20260507113005 | 17 | 25 | 0.0 | 0.0 | 0.00 | 0.08 | 0.00 | 62 | 1014.6 |
| 20260507111503 | 18 | 26 | 0.0 | 0.0 | 0.00 | 0.08 | 0.00 | 60 | 1014.6 |
| 20260507104555 | 17 | 49 | 0.0 | 0.0 | 0.00 | 0.23 | 0.00 | 66 | 1014.7 |
| 20260507103056 | 17 | 48 | 0.0 | 0.0 | 0.00 | 0.23 | 0.00 | 65 | 1014.7 |
| 20260507101551 | 17 | 49 | 0.0 | 0.0 | 0.00 | 0.23 | 0.00 | 72 | 1014.8 |
| 20260507100051 | 16 | 23 | 0.0 | 0.0 | 0.00 | 0.38 | 0.00 | 75 | 1014.5 |
| 20260507094556 | 16 | 5 | 0.0 | 0.0 | 0.00 | 0.38 | 0.00 | 78 | 1014.6 |
| 20260507093041 | 15 | 26 | 0.0 | 0.0 | 0.00 | 0.38 | 0.00 | 82 | 1014.5 |
| 20260507091538 | 15 | 348 | 0.0 | 0.0 | 0.00 | 0.38 | 0.00 | 88 | 1014.4 |